Zurück zum Katalog

STARLINK-11433

AktivKommunikationVLEO
NORAD 62008·PAYLOAD·🇺🇸 United States

Gestartet Nov 18, 2024 von Vandenberg Space Force Base

Loading…

Nächste Überflüge (nächste 24 Stunden)

TLE

AktuellSource: CelesTrak SupGP

Epoche: Sep 14, 2026, 22:47 UTC

1 62008C 24213A   26257.94979167 -.00052425  00000+0 -43163-3 0  2578
2 62008  53.1575 188.1037 0001234  94.5534 241.4778 15.69747143    13

Verfolge STARLINK-11433 in Echtzeit mit AllMySat

Download on the App Store